Skip Page Navigation
NASA JPL Caltech
NASA Logo - Jet Propulsion Laboratory + View the NASA Portal
+ Center for Near-Earth Object Studies
JPL Home Earth Solar System Stars & Galaxies Technology
JPL Solar System Dynamics
BODIES ORBITS EPHEMERIDES TOOLS PHYSICAL DATA DISCOVERY FAQ SITE MAP
IMPORTANT: The SSD Announcement email list is now available. Major changes are coming in the near future, including possible hostname and/or URL changes. To be notified of such changes, subscribe to this email list.

Please visit this page for more details.


JPL Small-Body Database Browser
Search: [ help ]  
359395 (2010 HM79)
Classification: Main-belt Asteroid          SPK-ID: 2359395
Ephemeris | Orbit Diagram | Orbital Elements | Mission Design | Physical Parameters | Discovery Circumstances | Close-Approach Data ]

[ show orbit diagram ]
Orbital Elements at Epoch 2458600.5 (2019-Apr-27.0) TDB
Reference: JPL 7 (heliocentric ecliptic J2000)
 Element Value Uncertainty (1-sigma)   Units 
e .1842654002572928 6.2566e-08  
a 2.212753151535838 2.3634e-08 au
q 1.805019306397501 1.3584e-07 au
i 4.753024837504385 8.2166e-06 deg
node 187.2457374586414 7.4618e-05 deg
peri 94.79671314560979 8.0141e-05 deg
M 214.357881618718 2.3476e-05 deg
tp 2459086.887455252931
(2020-Aug-25.38745525)
7.6214e-05 TDB
period 1202.258562544768
3.29
1.9262e-05
5.274e-08
d
yr
n .2994364200975237 4.7974e-09 deg/d
Q 2.620486996674175 2.7989e-08 au
  Orbit Determination Parameters
   # obs. used (total)      112  
   data-arc span      4744 days (12.99 yr)  
   first obs. used      2004-09-17  
   last obs. used      2017-09-13  
   planetary ephem.      DE431  
   SB-pert. ephem.      SB431-N16  
   condition code      0  
   norm. resid. RMS      .57269  
   source      ORB  
   producer      Otto Matic  
   solution date      2018-Oct-04 11:21:15  

Additional Information
 Earth MOID = .795861 au 
 Jupiter MOID = 2.52857 au 
 T_jup = 3.629 
[ show covariance matrix ]

Ephemeris | Orbit Diagram | Orbital Elements | Mission Design | Physical Parameters | Discovery Circumstances | Close-Approach Data ]

Physical Parameter Table
Parameter Symbol Value Units Sigma Reference Notes
absolute magnitude H 17.9   n/a MPO418820  
diameter diameter 1.287 km 0.248 urn:nasa:pds:neowise_diameters_albedos::2.0[mainbelt] (http://adsabs.harvard.edu/abs/2011ApJ...741...68M)  
geometric albedo albedo 0.061   0.031 urn:nasa:pds:neowise_diameters_albedos::2.0[mainbelt] (http://adsabs.harvard.edu/abs/2011ApJ...741...68M)  

359395 (2010 HM79)          Discovered 2010-Apr-20 by Spacewatch at Kitt Peak
Reference: 20130327/Numbers.arcLast Updated: 2013-03-29

[ show close-approach data ]
Alternate Designations
 2010 HM79 = 2004 SA6 
Ephemeris | Orbit Diagram | Orbital Elements | Mission Design | Physical Parameters | Discovery Circumstances | Close-Approach Data ]
ABOUT SSD CREDITS/AWARDS PRIVACY/COPYRIGHT GLOSSARY LINKS
FirstGov
(server date/time)  
NASA Home Page
Site Manager:   Ryan S. Park
Webmaster  Alan B. Chamberlin